contact:dominique.lefevre@mio.osupytheas.fr, maurice.libes@osupytheas.fr, didier.mallarino@osupytheas.fr
Project:EMSO http://www.emso-fr.org/EMSO-France
Depth: 2436.0 m
Title:EMSO Ligure Ouest : Data MII capteur CSTAR
DateTime,Latitude,Longitude,Instrument_Serial,Reference_Counts,Signal_Counts,Corrected_Signal_raw_counts,Calculated_Beam_c_inverse_meters,Internal_thermistor_counts
DateTime,Latitude,Longitude,Instrument_Serial,Reference_Counts,Signal_Counts,Corrected_Signal_raw_counts,Calculated_Beam_c_inverse_meters,Internal_thermistor_counts
2019-09-14T00:00:28,42.805,6.029,CST-1368DR,7998,11200,15392,0.058,551
2019-09-14T00:03:29,42.805,6.029,CST-1368DR,7998,11200,15392,0.058,550
2019-09-14T00:06:31,42.805,6.029,CST-1368DR,7998,11200,15393,0.058,551
2019-09-14T00:09:32,42.805,6.029,CST-1368DR,7998,11202,15395,0.057,551
2019-09-14T00:12:34,42.805,6.029,CST-1368DR,7998,11200,15393,0.058,551
2019-09-14T00:15:36,42.805,6.029,CST-1368DR,7998,11201,15394,0.057,551
2019-09-14T00:18:37,42.805,6.029,CST-1368DR,7998,11200,15393,0.058,551
2019-09-14T00:21:39,42.805,6.029,CST-1368DR,7998,11201,15394,0.057,550
2019-09-14T00:24:41,42.805,6.029,CST-1368DR,7998,11200,15392,0.058,551
2019-09-14T00:27:42,42.805,6.029,CST-1368DR,7998,11202,15395,0.057,550
2019-09-14T00:30:44,42.805,6.029,CST-1368DR,7998,11200,15393,0.058,551
2019-09-14T00:33:46,42.805,6.029,CST-1368DR,7998,11200,15393,0.058,551
2019-09-14T00:36:47,42.805,6.029,CST-1368DR,7998,11200,15393,0.058,551
2019-09-14T00:39:49,42.805,6.029,CST-1368DR,7998,11200,15393,0.058,551
2019-09-14T00:42:51,42.805,6.029,CST-1368DR,7998,11201,15395,0.057,550
2019-09-14T00:45:53,42.805,6.029,CST-1368DR,7998,11197,15389,0.059,551
2019-09-14T00:48:54,42.805,6.029,CST-1368DR,7998,11200,15393,0.058,551
2019-09-14T00:51:56,42.805,6.029,CST-1368DR,7998,11201,15395,0.057,550
2019-09-14T00:54:57,42.805,6.029,CST-1368DR,7998,11201,15395,0.057,551
2019-09-14T00:57:59,42.805,6.029,CST-1368DR,7998,11200,15392,0.058,551
2019-09-14T01:01:01,42.805,6.029,CST-1368DR,7998,11200,15392,0.058,551
2019-09-14T01:04:02,42.805,6.029,CST-1368DR,7998,11199,15392,0.058,551
2019-09-14T01:07:04,42.805,6.029,CST-1368DR,7998,11202,15395,0.057,551
2019-09-14T01:10:06,42.805,6.029,CST-1368DR,7998,11202,15395,0.057,551
2019-09-14T01:13:07,42.805,6.029,CST-1368DR,7998,11199,15392,0.058,551
2019-09-14T01:16:09,42.805,6.029,CST-1368DR,7998,11199,15392,0.058,551
2019-09-14T01:19:11,42.805,6.029,CST-1368DR,7997,11198,15392,0.058,551
2019-09-14T01:22:12,42.805,6.029,CST-1368DR,7997,11200,15395,0.057,551
2019-09-14T01:25:14,42.805,6.029,CST-1368DR,7998,11201,15394,0.057,551
2019-09-14T01:28:16,42.805,6.029,CST-1368DR,7997,11201,15396,0.057,551
2019-09-14T01:31:18,42.805,6.029,CST-1368DR,7997,11193,15386,0.059,551
2019-09-14T01:34:20,42.805,6.029,CST-1368DR,7997,11199,15393,0.058,551
2019-09-14T01:37:21,42.805,6.029,CST-1368DR,7997,11199,15394,0.057,551
2019-09-14T01:40:23,42.805,6.029,CST-1368DR,7997,11197,15391,0.058,550
2019-09-14T01:43:25,42.805,6.029,CST-1368DR,7997,11199,15393,0.058,551
2019-09-14T01:46:26,42.805,6.029,CST-1368DR,7997,11199,15394,0.057,551
2019-09-14T01:49:28,42.805,6.029,CST-1368DR,7997,11198,15392,0.058,551
2019-09-14T01:52:30,42.805,6.029,CST-1368DR,7997,11200,15394,0.057,551
2019-09-14T01:55:31,42.805,6.029,CST-1368DR,7997,11199,15393,0.058,551
2019-09-14T01:58:33,42.805,6.029,CST-1368DR,7997,11197,15391,0.058,551
2019-09-14T02:01:35,42.805,6.029,CST-1368DR,7997,11199,15393,0.058,551
2019-09-14T02:04:36,42.805,6.029,CST-1368DR,7997,11199,15393,0.058,550
2019-09-14T02:07:38,42.805,6.029,CST-1368DR,7997,11198,15392,0.058,551
2019-09-14T02:10:40,42.805,6.029,CST-1368DR,7997,11199,15393,0.058,551
2019-09-14T02:13:41,42.805,6.029,CST-1368DR,7997,11200,15394,0.057,551
2019-09-14T02:16:43,42.805,6.029,CST-1368DR,7997,11199,15393,0.058,551
2019-09-14T02:19:45,42.805,6.029,CST-1368DR,7997,11196,15390,0.058,550
2019-09-14T02:22:46,42.805,6.029,CST-1368DR,7997,11197,15391,0.058,551
2019-09-14T02:25:48,42.805,6.029,CST-1368DR,7997,11199,15394,0.057,551
2019-09-14T02:28:49,42.805,6.029,CST-1368DR,7997,11200,15395,0.057,551
2019-09-14T02:31:51,42.805,6.029,CST-1368DR,7997,11199,15394,0.057,551
2019-09-14T02:34:53,42.805,6.029,CST-1368DR,7997,11193,15385,0.060,551
2019-09-14T02:37:54,42.805,6.029,CST-1368DR,7997,11200,15395,0.057,551
2019-09-14T02:40:56,42.805,6.029,CST-1368DR,7997,11200,15395,0.057,551
2019-09-14T02:43:58,42.805,6.029,CST-1368DR,7997,11198,15392,0.058,551
2019-09-14T02:46:59,42.805,6.029,CST-1368DR,7997,11198,15392,0.058,551
2019-09-14T02:50:01,42.805,6.029,CST-1368DR,7997,11198,15392,0.058,551
2019-09-14T02:53:03,42.805,6.029,CST-1368DR,7997,11198,15392,0.058,551
2019-09-14T02:56:04,42.805,6.029,CST-1368DR,7997,11200,15394,0.057,551
2019-09-14T02:59:06,42.805,6.029,CST-1368DR,7997,11198,15392,0.058,551
2019-09-14T03:02:07,42.805,6.029,CST-1368DR,7997,11197,15391,0.058,551
2019-09-14T03:05:09,42.805,6.029,CST-1368DR,7997,11197,15391,0.058,551
2019-09-14T03:08:11,42.805,6.029,CST-1368DR,7997,11199,15393,0.058,551
2019-09-14T03:11:12,42.805,6.029,CST-1368DR,7997,11198,15392,0.058,551
2019-09-14T03:14:14,42.805,6.029,CST-1368DR,7997,11198,15392,0.058,551
2019-09-14T03:17:16,42.805,6.029,CST-1368DR,7997,11199,15393,0.058,551
2019-09-14T03:20:17,42.805,6.029,CST-1368DR,7997,11199,15393,0.058,551
2019-09-14T03:23:19,42.805,6.029,CST-1368DR,7997,11198,15392,0.058,550
2019-09-14T03:26:21,42.805,6.029,CST-1368DR,7997,11198,15392,0.058,551
2019-09-14T03:29:22,42.805,6.029,CST-1368DR,7997,11199,15394,0.057,551
2019-09-14T03:32:24,42.805,6.029,CST-1368DR,7997,11198,15392,0.058,551
2019-09-14T03:35:25,42.805,6.029,CST-1368DR,7997,11198,15392,0.058,551
2019-09-14T03:38:27,42.805,6.029,CST-1368DR,7997,11181,15369,0.064,551
2019-09-14T03:41:29,42.805,6.029,CST-1368DR,7997,11198,15392,0.058,550
2019-09-14T03:44:30,42.805,6.029,CST-1368DR,7997,11199,15394,0.057,551
2019-09-14T03:47:32,42.805,6.029,CST-1368DR,7997,11198,15392,0.058,551
2019-09-14T03:50:34,42.805,6.029,CST-1368DR,7997,11199,15393,0.058,551
2019-09-14T03:53:35,42.805,6.029,CST-1368DR,7997,11199,15393,0.058,551
2019-09-14T03:56:37,42.805,6.029,CST-1368DR,7996,11199,15395,0.057,551
2019-09-14T03:59:39,42.805,6.029,CST-1368DR,7997,11199,15394,0.057,550
2019-09-14T04:02:40,42.805,6.029,CST-1368DR,7997,11198,15392,0.058,551
2019-09-14T04:05:42,42.805,6.029,CST-1368DR,7997,11198,15392,0.058,551
2019-09-14T04:08:43,42.805,6.029,CST-1368DR,7996,11197,15393,0.058,551
2019-09-14T04:11:45,42.805,6.029,CST-1368DR,7996,11197,15393,0.058,551
2019-09-14T04:14:47,42.805,6.029,CST-1368DR,7996,11199,15395,0.057,551
2019-09-14T04:17:48,42.805,6.029,CST-1368DR,7996,11198,15394,0.057,551
2019-09-14T04:20:50,42.805,6.029,CST-1368DR,7996,11200,15396,0.057,551
2019-09-14T04:23:52,42.805,6.029,CST-1368DR,7996,11199,15395,0.057,551
2019-09-14T04:26:53,42.805,6.029,CST-1368DR,7996,11199,15395,0.057,550
2019-09-14T04:29:55,42.805,6.029,CST-1368DR,7996,11200,15396,0.057,551
2019-09-14T04:32:57,42.805,6.029,CST-1368DR,7996,11199,15395,0.057,551
2019-09-14T04:35:58,42.805,6.029,CST-1368DR,7995,11037,15174,0.115,551
2019-09-14T04:39:00,42.805,6.029,CST-1368DR,7996,11200,15396,0.057,551
2019-09-14T04:42:02,42.805,6.029,CST-1368DR,7996,11198,15394,0.057,550
2019-09-14T04:45:03,42.805,6.029,CST-1368DR,7996,11200,15396,0.057,551
2019-09-14T04:48:06,42.805,6.029,CST-1368DR,7996,11198,15394,0.057,551
2019-09-14T04:51:07,42.805,6.029,CST-1368DR,7996,11199,15395,0.057,551
2019-09-14T04:54:09,42.805,6.029,CST-1368DR,7996,11126,15295,0.083,551
2019-09-14T04:57:10,42.805,6.029,CST-1368DR,7996,11200,15396,0.057,550
2019-09-14T05:00:12,42.805,6.029,CST-1368DR,7996,11197,15392,0.058,551
2019-09-14T05:03:14,42.805,6.029,CST-1368DR,7996,11199,15396,0.057,551
2019-09-14T05:06:15,42.805,6.029,CST-1368DR,7996,11199,15396,0.057,551
2019-09-14T05:09:17,42.805,6.029,CST-1368DR,7996,11198,15394,0.057,551
2019-09-14T05:12:19,42.805,6.029,CST-1368DR,7996,11199,15395,0.057,551
2019-09-14T05:15:20,42.805,6.029,CST-1368DR,7996,11197,15392,0.058,551
2019-09-14T05:18:22,42.805,6.029,CST-1368DR,7996,11198,15394,0.057,551
2019-09-14T05:21:24,42.805,6.029,CST-1368DR,7996,11198,15394,0.057,551
2019-09-14T05:24:25,42.805,6.029,CST-1368DR,7996,11196,15391,0.058,550
2019-09-14T05:27:27,42.805,6.029,CST-1368DR,7996,11199,15395,0.057,550
2019-09-14T05:30:28,42.805,6.029,CST-1368DR,7996,11197,15392,0.058,550
2019-09-14T05:33:30,42.805,6.029,CST-1368DR,7996,11198,15394,0.057,551
2019-09-14T05:36:32,42.805,6.029,CST-1368DR,7996,11198,15394,0.057,551
2019-09-14T05:39:33,42.805,6.029,CST-1368DR,7996,11198,15394,0.057,551
2019-09-14T05:42:35,42.805,6.029,CST-1368DR,7996,11199,15395,0.057,551
2019-09-14T05:45:37,42.805,6.029,CST-1368DR,7996,11198,15394,0.057,551
2019-09-14T05:48:38,42.805,6.029,CST-1368DR,7996,11199,15395,0.057,551
2019-09-14T05:51:40,42.805,6.029,CST-1368DR,7996,11195,15390,0.058,551
2019-09-14T05:54:42,42.805,6.029,CST-1368DR,7996,11199,15395,0.057,551
2019-09-14T05:57:43,42.805,6.029,CST-1368DR,7996,11197,15392,0.058,551
2019-09-14T06:00:45,42.805,6.029,CST-1368DR,7996,11198,15394,0.057,551
2019-09-14T06:03:46,42.805,6.029,CST-1368DR,7996,11196,15390,0.058,551
2019-09-14T06:06:48,42.805,6.029,CST-1368DR,7996,11197,15393,0.058,551
2019-09-14T06:09:50,42.805,6.029,CST-1368DR,7996,11198,15394,0.057,551
2019-09-14T06:12:51,42.805,6.029,CST-1368DR,7996,11198,15394,0.057,550
2019-09-14T06:15:53,42.805,6.029,CST-1368DR,7996,11198,15394,0.057,551
2019-09-14T06:18:55,42.805,6.029,CST-1368DR,7996,11196,15391,0.058,551
2019-09-14T06:21:56,42.805,6.029,CST-1368DR,7996,11196,15390,0.058,551
2019-09-14T06:24:58,42.805,6.029,CST-1368DR,7995,11197,15394,0.057,551
2019-09-14T06:28:00,42.805,6.029,CST-1368DR,7995,11199,15396,0.057,550
2019-09-14T06:31:01,42.805,6.029,CST-1368DR,7995,11198,15396,0.057,551
2019-09-14T06:34:03,42.805,6.029,CST-1368DR,7995,11199,15397,0.056,551
2019-09-14T06:37:04,42.805,6.029,CST-1368DR,7995,11198,15396,0.057,551
2019-09-14T06:40:06,42.805,6.029,CST-1368DR,7995,11198,15396,0.057,551
2019-09-14T06:43:08,42.805,6.029,CST-1368DR,7995,11198,15396,0.057,551
2019-09-14T06:46:09,42.805,6.029,CST-1368DR,7995,11197,15394,0.057,551
2019-09-14T06:49:11,42.805,6.029,CST-1368DR,7995,11198,15396,0.057,551
2019-09-14T06:52:13,42.805,6.029,CST-1368DR,7995,11197,15394,0.057,551
2019-09-14T06:55:14,42.805,6.029,CST-1368DR,7995,11199,15396,0.057,551
2019-09-14T06:58:16,42.805,6.029,CST-1368DR,7995,11197,15395,0.057,551
2019-09-14T07:01:18,42.805,6.029,CST-1368DR,7995,11198,15396,0.057,551
2019-09-14T07:04:20,42.805,6.029,CST-1368DR,7995,11199,15397,0.056,551
2019-09-14T07:07:21,42.805,6.029,CST-1368DR,7995,11197,15395,0.057,551
2019-09-14T07:10:23,42.805,6.029,CST-1368DR,7995,11198,15395,0.057,551
2019-09-14T07:13:25,42.805,6.029,CST-1368DR,7995,11198,15396,0.057,551
2019-09-14T07:16:26,42.805,6.029,CST-1368DR,7995,11197,15394,0.057,551
2019-09-14T07:19:28,42.805,6.029,CST-1368DR,7995,11197,15394,0.057,551
2019-09-14T07:22:29,42.805,6.029,CST-1368DR,7995,11197,15394,0.057,551
2019-09-14T07:25:31,42.805,6.029,CST-1368DR,7995,11197,15394,0.057,551
2019-09-14T07:28:33,42.805,6.029,CST-1368DR,7995,11197,15395,0.057,551
2019-09-14T07:31:34,42.805,6.029,CST-1368DR,7995,11196,15393,0.058,551
2019-09-14T07:34:36,42.805,6.029,CST-1368DR,7995,11198,15396,0.057,551
2019-09-14T07:37:38,42.805,6.029,CST-1368DR,7995,11197,15394,0.057,551
2019-09-14T07:40:39,42.805,6.029,CST-1368DR,7995,11197,15394,0.057,550
2019-09-14T07:43:41,42.805,6.029,CST-1368DR,7995,11197,15395,0.057,551
2019-09-14T07:46:43,42.805,6.029,CST-1368DR,7995,11196,15393,0.058,551
2019-09-14T07:49:44,42.805,6.029,CST-1368DR,7995,11197,15395,0.057,551
2019-09-14T07:52:46,42.805,6.029,CST-1368DR,7995,11197,15394,0.057,551
2019-09-14T07:55:47,42.805,6.029,CST-1368DR,7995,11196,15393,0.058,551
2019-09-14T07:58:49,42.805,6.029,CST-1368DR,7995,11196,15393,0.058,551
2019-09-14T08:01:51,42.805,6.029,CST-1368DR,7995,11196,15393,0.058,551
2019-09-14T08:04:52,42.805,6.029,CST-1368DR,7995,11195,15391,0.058,551
2019-09-14T08:07:54,42.805,6.029,CST-1368DR,7995,11197,15394,0.057,551
2019-09-14T08:10:56,42.805,6.029,CST-1368DR,7995,11196,15393,0.058,551
2019-09-14T08:13:57,42.805,6.029,CST-1368DR,7995,11197,15394,0.057,551
2019-09-14T08:16:59,42.805,6.029,CST-1368DR,7995,11196,15393,0.058,551
2019-09-14T08:20:01,42.805,6.029,CST-1368DR,7995,11196,15393,0.058,551
2019-09-14T08:23:02,42.805,6.029,CST-1368DR,7995,11196,15392,0.058,550
2019-09-14T08:26:04,42.805,6.029,CST-1368DR,7995,11197,15395,0.057,551
2019-09-14T08:29:06,42.805,6.029,CST-1368DR,7994,11197,15396,0.057,551
2019-09-14T08:32:07,42.805,6.029,CST-1368DR,7994,11197,15396,0.057,551
2019-09-14T08:35:09,42.805,6.029,CST-1368DR,7994,11186,15381,0.061,551
2019-09-14T08:38:10,42.805,6.029,CST-1368DR,7994,11198,15397,0.056,551
2019-09-14T08:41:12,42.805,6.029,CST-1368DR,7994,11197,15396,0.057,551
2019-09-14T08:44:14,42.805,6.029,CST-1368DR,7995,11197,15395,0.057,551
2019-09-14T08:47:15,42.805,6.029,CST-1368DR,7994,11195,15393,0.058,551
2019-09-14T08:50:17,42.805,6.029,CST-1368DR,7994,11197,15396,0.057,551
2019-09-14T08:53:19,42.805,6.029,CST-1368DR,7994,11196,15395,0.057,551
2019-09-14T08:56:20,42.805,6.029,CST-1368DR,7994,11197,15396,0.057,551
2019-09-14T08:59:22,42.805,6.029,CST-1368DR,7994,11192,15390,0.058,551
2019-09-14T09:02:23,42.805,6.029,CST-1368DR,7994,11198,15397,0.056,551
2019-09-14T09:05:25,42.805,6.029,CST-1368DR,7994,11196,15395,0.057,551
2019-09-14T09:08:27,42.805,6.029,CST-1368DR,7994,11196,15395,0.057,551
2019-09-14T09:11:28,42.805,6.029,CST-1368DR,7994,11197,15396,0.057,551
2019-09-14T09:14:30,42.805,6.029,CST-1368DR,7994,11197,15395,0.057,550
2019-09-14T09:17:32,42.805,6.029,CST-1368DR,7994,11196,15394,0.057,551
2019-09-14T09:20:33,42.805,6.029,CST-1368DR,7994,11197,15396,0.057,551
2019-09-14T09:23:35,42.805,6.029,CST-1368DR,7994,11198,15397,0.056,551
2019-09-14T09:26:37,42.805,6.029,CST-1368DR,7994,11197,15395,0.057,550
2019-09-14T09:29:38,42.805,6.029,CST-1368DR,7994,11196,15395,0.057,551
2019-09-14T09:32:40,42.805,6.029,CST-1368DR,7994,11198,15397,0.056,551
2019-09-14T09:35:41,42.805,6.029,CST-1368DR,7994,11196,15394,0.057,551
2019-09-14T09:38:43,42.805,6.029,CST-1368DR,7994,11193,15391,0.058,551
2019-09-14T09:41:45,42.805,6.029,CST-1368DR,7994,11195,15394,0.057,551
2019-09-14T09:44:47,42.805,6.029,CST-1368DR,7994,11197,15396,0.057,551
2019-09-14T09:47:48,42.805,6.029,CST-1368DR,7994,11197,15395,0.057,551
2019-09-14T09:50:50,42.805,6.029,CST-1368DR,7994,11196,15394,0.057,551
2019-09-14T09:53:52,42.805,6.029,CST-1368DR,7994,11197,15395,0.057,551
2019-09-14T09:56:53,42.805,6.029,CST-1368DR,7994,11196,15394,0.057,551
2019-09-14T09:59:55,42.805,6.029,CST-1368DR,7994,11197,15396,0.057,551
2019-09-14T10:02:57,42.805,6.029,CST-1368DR,7994,11195,15394,0.057,551
2019-09-14T10:05:58,42.805,6.029,CST-1368DR,7994,11196,15394,0.057,551
2019-09-14T10:09:00,42.805,6.029,CST-1368DR,7994,11196,15395,0.057,551
2019-09-14T10:12:02,42.805,6.029,CST-1368DR,7994,11197,15396,0.057,551
2019-09-14T10:15:03,42.805,6.029,CST-1368DR,7994,11197,15395,0.057,551
2019-09-14T10:18:05,42.805,6.029,CST-1368DR,7994,11196,15394,0.057,551
2019-09-14T10:21:06,42.805,6.029,CST-1368DR,7994,11197,15396,0.057,550
2019-09-14T10:24:08,42.805,6.029,CST-1368DR,7994,11194,15392,0.058,551
2019-09-14T10:27:10,42.805,6.029,CST-1368DR,7994,11197,15395,0.057,551
2019-09-14T10:30:11,42.805,6.029,CST-1368DR,7994,11196,15394,0.057,551
2019-09-14T10:33:13,42.805,6.029,CST-1368DR,7994,11190,15386,0.059,551
2019-09-14T10:36:15,42.805,6.029,CST-1368DR,7994,11195,15393,0.058,551
2019-09-14T10:39:16,42.805,6.029,CST-1368DR,7994,11197,15396,0.057,551
2019-09-14T10:42:18,42.805,6.029,CST-1368DR,7994,11196,15394,0.057,551
2019-09-14T10:45:19,42.805,6.029,CST-1368DR,7994,11193,15391,0.058,551
2019-09-14T10:48:21,42.805,6.029,CST-1368DR,7994,11195,15393,0.058,551
2019-09-14T10:51:23,42.805,6.029,CST-1368DR,7994,11196,15394,0.057,550
2019-09-14T10:54:24,42.805,6.029,CST-1368DR,7994,11194,15392,0.058,551
2019-09-14T10:57:26,42.805,6.029,CST-1368DR,7994,11195,15393,0.058,550
2019-09-14T11:00:28,42.805,6.029,CST-1368DR,7993,11196,15396,0.057,551
2019-09-14T11:03:29,42.805,6.029,CST-1368DR,7994,11195,15393,0.058,551
2019-09-14T11:06:31,42.805,6.029,CST-1368DR,7994,11197,15395,0.057,551
2019-09-14T11:09:32,42.805,6.029,CST-1368DR,7994,11196,15395,0.057,551
2019-09-14T11:12:34,42.805,6.029,CST-1368DR,7994,11196,15395,0.057,551
2019-09-14T11:15:36,42.805,6.029,CST-1368DR,7994,11196,15394,0.057,551
2019-09-14T11:18:37,42.805,6.029,CST-1368DR,7993,11195,15395,0.057,551
2019-09-14T11:21:39,42.805,6.029,CST-1368DR,7993,11196,15397,0.056,551
2019-09-14T11:24:41,42.805,6.029,CST-1368DR,7993,11197,15398,0.056,551
2019-09-14T11:27:42,42.805,6.029,CST-1368DR,7993,11196,15396,0.057,551
2019-09-14T11:30:44,42.805,6.029,CST-1368DR,7993,11192,15390,0.058,551
2019-09-14T11:33:46,42.805,6.029,CST-1368DR,7993,11195,15395,0.057,551
2019-09-14T11:36:47,42.805,6.029,CST-1368DR,7993,11194,15393,0.058,551
2019-09-14T11:39:49,42.805,6.029,CST-1368DR,7993,11194,15393,0.058,551
2019-09-14T11:42:50,42.805,6.029,CST-1368DR,7993,11196,15397,0.056,551
2019-09-14T11:45:52,42.805,6.029,CST-1368DR,7993,11196,15396,0.057,551
2019-09-14T11:48:54,42.805,6.029,CST-1368DR,7993,11196,15396,0.057,551
2019-09-14T11:51:55,42.805,6.029,CST-1368DR,7993,11196,15396,0.057,550
2019-09-14T11:54:57,42.805,6.029,CST-1368DR,7993,11195,15395,0.057,551
2019-09-14T11:57:59,42.805,6.029,CST-1368DR,7993,11196,15397,0.056,551
2019-09-14T12:01:00,42.805,6.029,CST-1368DR,7993,11197,15397,0.056,551
2019-09-14T12:04:02,42.805,6.029,CST-1368DR,7993,11196,15396,0.057,550
2019-09-14T12:07:04,42.805,6.029,CST-1368DR,7993,11195,15395,0.057,551
2019-09-14T12:10:05,42.805,6.029,CST-1368DR,7993,11197,15397,0.056,551
2019-09-14T12:13:07,42.805,6.029,CST-1368DR,7993,11196,15397,0.056,551
2019-09-14T12:16:08,42.805,6.029,CST-1368DR,7993,11196,15396,0.057,551
2019-09-14T12:19:10,42.805,6.029,CST-1368DR,7993,11197,15398,0.056,551
2019-09-14T12:22:12,42.805,6.029,CST-1368DR,7993,11197,15397,0.056,551
2019-09-14T12:25:13,42.805,6.029,CST-1368DR,7993,11195,15395,0.057,551
2019-09-14T12:28:16,42.805,6.029,CST-1368DR,7993,11195,15395,0.057,551
2019-09-14T12:31:18,42.805,6.029,CST-1368DR,7993,11195,15395,0.057,551
2019-09-14T12:34:19,42.805,6.029,CST-1368DR,7993,11195,15395,0.057,551
2019-09-14T12:37:21,42.805,6.029,CST-1368DR,7993,11196,15397,0.056,551
2019-09-14T12:40:23,42.805,6.029,CST-1368DR,7993,11195,15394,0.057,551
2019-09-14T12:43:24,42.805,6.029,CST-1368DR,7993,11195,15395,0.057,551
2019-09-14T12:46:26,42.805,6.029,CST-1368DR,7993,11195,15395,0.057,551
2019-09-14T12:49:28,42.805,6.029,CST-1368DR,7993,11195,15395,0.057,551
2019-09-14T12:52:29,42.805,6.029,CST-1368DR,7993,11195,15394,0.057,551
2019-09-14T12:55:31,42.805,6.029,CST-1368DR,7993,11196,15397,0.056,551
2019-09-14T12:58:32,42.805,6.029,CST-1368DR,7993,11195,15395,0.057,551
2019-09-14T13:01:34,42.805,6.029,CST-1368DR,7993,11195,15395,0.057,551
2019-09-14T13:04:36,42.805,6.029,CST-1368DR,7993,11197,15398,0.056,551
2019-09-14T13:07:37,42.805,6.029,CST-1368DR,7993,11194,15393,0.058,551
2019-09-14T13:10:39,42.805,6.029,CST-1368DR,7993,11196,15396,0.057,551
2019-09-14T13:13:41,42.805,6.029,CST-1368DR,7993,11196,15396,0.057,551
2019-09-14T13:16:42,42.805,6.029,CST-1368DR,7993,11196,15396,0.057,551
2019-09-14T13:19:44,42.805,6.029,CST-1368DR,7993,11196,15397,0.056,551
2019-09-14T13:22:46,42.805,6.029,CST-1368DR,7993,11196,15396,0.057,551
2019-09-14T13:25:47,42.805,6.029,CST-1368DR,7993,11195,15395,0.057,551
2019-09-14T13:28:49,42.805,6.029,CST-1368DR,7993,11196,15397,0.056,551
2019-09-14T13:31:51,42.805,6.029,CST-1368DR,7993,11195,15395,0.057,551
2019-09-14T13:34:52,42.805,6.029,CST-1368DR,7993,11196,15396,0.057,551
2019-09-14T13:37:54,42.805,6.029,CST-1368DR,7993,11195,15395,0.057,550
2019-09-14T13:40:56,42.805,6.029,CST-1368DR,7993,11195,15394,0.057,551
2019-09-14T13:43:57,42.805,6.029,CST-1368DR,7993,11195,15395,0.057,551
2019-09-14T13:46:59,42.805,6.029,CST-1368DR,7993,11196,15396,0.057,551
2019-09-14T13:50:01,42.805,6.029,CST-1368DR,7993,11194,15394,0.057,551
2019-09-14T13:53:02,42.805,6.029,CST-1368DR,7993,11194,15394,0.057,551
2019-09-14T13:56:04,42.805,6.029,CST-1368DR,7993,11194,15394,0.057,551
2019-09-14T13:59:06,42.805,6.029,CST-1368DR,7993,11192,15391,0.058,551
2019-09-14T14:02:07,42.805,6.029,CST-1368DR,7992,11195,15397,0.056,551
2019-09-14T14:05:09,42.805,6.029,CST-1368DR,7993,11195,15395,0.057,551
2019-09-14T14:08:11,42.805,6.029,CST-1368DR,7993,11196,15397,0.056,551
2019-09-14T14:11:12,42.805,6.029,CST-1368DR,7993,11194,15393,0.058,551
2019-09-14T14:14:14,42.805,6.029,CST-1368DR,7993,11194,15394,0.057,551
2019-09-14T14:17:16,42.805,6.029,CST-1368DR,7993,11195,15395,0.057,551
2019-09-14T14:20:17,42.805,6.029,CST-1368DR,7993,11195,15395,0.057,551
2019-09-14T14:23:19,42.805,6.029,CST-1368DR,7992,11194,15396,0.057,551
2019-09-14T14:26:20,42.805,6.029,CST-1368DR,7992,11195,15396,0.057,551
2019-09-14T14:29:22,42.805,6.029,CST-1368DR,7992,11194,15396,0.057,551
2019-09-14T14:32:24,42.805,6.029,CST-1368DR,7992,11193,15394,0.057,551
2019-09-14T14:35:25,42.805,6.029,CST-1368DR,7992,11194,15396,0.057,551
2019-09-14T14:38:27,42.805,6.029,CST-1368DR,7992,11194,15396,0.057,551
2019-09-14T14:41:29,42.805,6.029,CST-1368DR,7992,11193,15395,0.057,551
2019-09-14T14:44:30,42.805,6.029,CST-1368DR,7992,11191,15391,0.058,551
2019-09-14T14:47:32,42.805,6.029,CST-1368DR,7992,11195,15397,0.056,551
2019-09-14T14:50:33,42.805,6.029,CST-1368DR,7992,11194,15395,0.057,551
2019-09-14T14:53:35,42.805,6.029,CST-1368DR,7988,10714,14742,0.230,550
2019-09-14T14:56:37,42.805,6.029,CST-1368DR,7992,11195,15396,0.057,551
2019-09-14T14:59:38,42.805,6.029,CST-1368DR,7992,11195,15396,0.057,551
2019-09-14T15:02:40,42.805,6.029,CST-1368DR,7992,11192,15392,0.058,550
2019-09-14T15:05:42,42.805,6.029,CST-1368DR,7992,11193,15395,0.057,551
2019-09-14T15:08:43,42.805,6.029,CST-1368DR,7992,11189,15389,0.059,551
2019-09-14T15:11:45,42.805,6.029,CST-1368DR,7992,11190,15390,0.058,551
2019-09-14T15:14:46,42.805,6.029,CST-1368DR,7992,11194,15395,0.057,551
2019-09-14T15:17:48,42.805,6.029,CST-1368DR,7992,11193,15395,0.057,551
2019-09-14T15:20:50,42.805,6.029,CST-1368DR,7992,11193,15393,0.058,551
2019-09-14T15:23:51,42.805,6.029,CST-1368DR,7992,11194,15395,0.057,550
2019-09-14T15:26:53,42.805,6.029,CST-1368DR,7992,11193,15395,0.057,551
2019-09-14T15:29:55,42.805,6.029,CST-1368DR,7992,11193,15395,0.057,551
2019-09-14T15:32:56,42.805,6.029,CST-1368DR,7992,11193,15394,0.057,551
2019-09-14T15:35:58,42.805,6.029,CST-1368DR,7992,11195,15397,0.056,551
2019-09-14T15:38:59,42.805,6.029,CST-1368DR,7992,11195,15397,0.056,551
2019-09-14T15:42:01,42.805,6.029,CST-1368DR,7992,11193,15393,0.058,551
2019-09-14T15:45:03,42.805,6.029,CST-1368DR,7992,11194,15395,0.057,551
2019-09-14T15:48:04,42.805,6.029,CST-1368DR,7992,11191,15391,0.058,551
2019-09-14T15:51:06,42.805,6.029,CST-1368DR,7992,11193,15394,0.057,550
2019-09-14T15:54:08,42.805,6.029,CST-1368DR,7992,11192,15392,0.058,550
2019-09-14T15:57:09,42.805,6.029,CST-1368DR,7992,11188,15387,0.059,551
2019-09-14T16:00:11,42.805,6.029,CST-1368DR,7992,11192,15392,0.058,550
2019-09-14T16:03:13,42.805,6.029,CST-1368DR,7992,11192,15393,0.058,551
2019-09-14T16:06:14,42.805,6.029,CST-1368DR,7992,11193,15395,0.057,551
2019-09-14T16:09:16,42.805,6.029,CST-1368DR,7992,11194,15396,0.057,551
2019-09-14T16:12:18,42.805,6.029,CST-1368DR,7992,11193,15394,0.057,551
2019-09-14T16:15:19,42.805,6.029,CST-1368DR,7992,11195,15396,0.057,551
2019-09-14T16:18:21,42.805,6.029,CST-1368DR,7992,11193,15394,0.057,551
2019-09-14T16:21:23,42.805,6.029,CST-1368DR,7992,11194,15395,0.057,551
2019-09-14T16:24:24,42.805,6.029,CST-1368DR,7992,11194,15395,0.057,551
2019-09-14T16:27:26,42.805,6.029,CST-1368DR,7992,11192,15393,0.058,551
2019-09-14T16:30:27,42.805,6.029,CST-1368DR,7992,11194,15395,0.057,551
2019-09-14T16:33:29,42.805,6.029,CST-1368DR,7992,11193,15393,0.058,551
2019-09-14T16:36:31,42.805,6.029,CST-1368DR,7992,11192,15392,0.058,551